Dewpoint
-4 -3 -2 -2 -3 -4 -7 -3 2 1 4 3 4 3 2 -0 -3 -4 -6 -5 -7 -4 -3 -4 -4 -4 -3 -1 -1 -1 -0 0 0 0 1 1 1 0 -0 -0 1 2 1 2 2 4 2 -3 -3 -2 -3 -0 -0 -1
-3 -2 -3 -2 -5 -5 -7 2 3 3 4 4 3 3 1 -2 -4 -5 -6 -5 -7 -5 -3 -4 -4 -4 -3 -3 -0 -0 -1 -0 -0 -1 -1 0 1 -1 -2 2 -2 0 -1 0 0 1 -3 -2 -2 -2 -2 -1 -0 -1
-3 -3 -3 -6 -6 -11 -0 2 3 3 3 3 3 1 -2 -4 -4 -6 -5 -6 -7 -5 -5 -5 -5 -4 -3 -3 -1 -1 -0 -0 0 -0 -1 -0 1 -1 -0 -1 -0 -2 -2 -1 -1 -2 -2 -1 -1 -2 -2 -2 -2 -2
-4 -3 -5 -5 -9 -8 1 2 4 3 3 3 -1 -3 -3 -5 -6 -7 -6 -7 -8 -8 -4 -3 -5 -5 -4 -4 -3 -3 -2 -1 -0 -0 -1 -2 1 -0 0 -1 -1 -2 -2 -1 -1 -1 -2 -2 -2 -3 -3 -2 -2 -2
-4 -4 -5 -6 -13 -3 2 3 4 3 3 2 -2 -4 -4 -5 -7 -6 -5 -8 -9 -7 -3 -3 -4 -4 -4 -4 -3 -2 -1 -1 -2 -3 -2 -1 -1 -1 -2 -2 -1 -2 -1 -1 -0 -2 -1 -2 -2 -2 -1 -1 -1 -0
-5 -5 -7 -9 -14 1 2 2 3 3 3 -3 -6 -4 -5 -7 -7 -6 -8 -6 -5 -9 -4 -3 -3 -3 -4 -5 -3 -3 -3 -3 -3 -3 -4 -4 -4 -2 -2 -1 -3 -2 -2 -2 -3 -3 -3 -2 -1 -1 -2 -1 -0 0
-6 -6 -11 -12 -10 1 2 2 3 2 1 -4 -6 -6 -5 -6 -6 -6 -6 -5 -7 -4 -5 -3 -4 -3 -3 -4 -5 -5 -5 -4 -5 -4 -3 -3 -4 -4 -3 -2 -4 -5 -5 -5 -4 -2 -1 -1 -1 -1 -1 -0 -0 0
-8 -8 -12 -14 -8 1 1 2 2 2 -0 -1 -4 -5 -6 -4 -5 -4 -3 -5 -3 -3 -3 -3 -2 -3 -3 -2 -3 -3 -4 -4 -4 -3 -4 -4 -3 -4 -3 -4 -5 -5 -4 -3 -1 -1 -1 -1 -1 -1 -1 -1 -1 -1
-10 -10 -12 -16 -4 1 1 2 2 2 -0 -2 -3 -4 -7 -6 -7 -4 -4 -5 -3 -4 -3 -4 -3 -2 -2 -2 -3 -3 -3 -3 -4 -3 -3 -4 -4 -3 -5 -6 -5 -5 -5 -2 -1 -1 -1 -1 -1 -1 -2 -2 -2 -1
-12 -10 -10 -17 -10 0 1 2 2 2 -4 -3 -3 -3 -3 -7 -6 -5 -6 -6 -5 -3 -1 -3 -3 -3 -2 -3 -3 -3 -2 -2 -3 -3 -3 -3 -3 -4 -5 -5 -5 -5 -5 -1 -1 -2 -1 -1 -1 -1 -2 -2 -3 -1
-13 -10 -13 -16 -4 1 2 2 2 -0 -4 -4 -5 -5 -4 -6 -6 -6 -5 -4 -3 -3 -2 -2 -4 -2 -3 -4 -3 -4 -2 -3 -5 -4 -3 -4 -3 -4 -5 -4 -7 -6 -5 -2 -2 -2 -1 -1 -2 -2 -2 -2 -2 -3
-12 -10 -11 -1 1 3 2 2 1 -1 -5 -6 -7 -4 -6 -3 -3 -3 -4 -4 -3 -3 -2 -3 -3 -2 -2 -3 -3 -2 -4 -4 -4 -3 -2 -3 -4 -5 -4 -4 -4 -4 -2 -2 -2 -1 -1 -2 -2 -2 -2 -2 -3 -3
-9 -10 -1 1 2 3 2 2 1 -4 -7 -8 -6 -3 -2 -3 -3 -2 -4 -4 -2 -2 -2 -2 -3 -2 -3 -3 -4 -4 -4 -4 -3 -2 -2 -4 -4 -3 -3 -3 -2 -2 -2 -2 -1 -1 -2 -3 -4 -6 -8 -8 -3 -2
-6 -9 -0 0 2 2 1 1 -1 -5 -6 -7 -5 -4 -4 -3 -5 -3 -2 -2 -3 -2 -2 -3 -2 -2 -3 -4 -4 -6 -4 -2 -2 -3 -4 -4 -4 -2 -2 -2 -2 -2 -2 -2 -4 -4 -5 -6 -6 -7 -8 -9 -9 -4
-4 -10 -1 0 1 1 1 -0 -3 -5 -6 -8 -8 -4 -5 -6 -3 -1 -1 -2 -2 -2 -4 -3 -3 -3 -5 -3 -4 -3 -2 -2 -3 -4 -5 -3 -2 -2 -2 -2 -2 -5 -7 -7 -6 -6 -7 -6 -8 -11 -11 -9 -8 -6
-7 -6 -0 -0 1 1 0 -1 -2 -6 -9 -7 -5 -6 -4 -3 -2 -1 -2 -1 -2 -4 -6 -6 -5 -6 -3 -4 -4 -5 -4 -4 -6 -6 -2 -1 -2 -2 -2 -2 -3 -6 -6 -6 -6 -6 -6 -8 -10 -12 -11 -9 -8 -6
-6 -2 0 -0 0 -0 -0 -1 -1 -4 -5 -5 -6 -5 -5 -4 -2 -1 -1 -2 -4 -7 -4 -5 -7 -7 -5 -6 -5 -5 -5 -6 -6 -1 -1 -2 -2 -3 -3 -2 -3 -5 -6 -7 -6 -6 -6 -8 -9 -12 -12 -10 -9 -7
-5 -2 -0 -0 -1 -2 -1 -1 -1 -3 -5 -4 -6 -4 -3 -2 -1 -1 -2 -3 -5 -6 -6 -5 -4 -5 -4 -6 -5 -5 -4 -2 -2 -2 -8 -8 -8 -9 -9 -9 -9 -8 -7 -6 -5 -5 -6 -6 -7 -9 -13 -11 -10 -6
-4 -1 -1 -0 0 -1 -1 -1 -3 -5 -6 -5 -4 -3 -3 -2 -2 -2 -2 -4 -7 -7 -6 -6 -7 -6 -5 -6 -6 -5 -4 -3 -4 -7 -9 -9 -9 -9 -9 -10 -10 -9 -8 -8 -8 -7 -8 -7 -7 -7 -13 -12 -10 -7
-3 -1 -1 -0 -0 -1 -1 -3 -6 -6 -6 -5 -4 -4 -3 -3 -3 -3 -4 -6 -8 -10 -9 -8 -8 -9 -7 -6 -6 -7 -5 -4 -5 -8 -9 -9 -9 -9 -10 -11 -11 -10 -9 -9 -8 -8 -9 -9 -9 -8 -14 -13 -11 -11
-1 -2 -1 -1 -1 -1 -3 -4 -5 -6 -5 -5 -4 -4 -4 -4 -4 -4 -5 -7 -9 -8 -6 -9 -9 -7 -8 -8 -7 -8 -9 -9 -9 -9 -9 -10 -12 -14 -15 -15 -15 -15 -14 -13 -12 -10 -9 -9 -9 -8 -16 -16 -14 -14
-2 -2 -2 -1 -2 -3 -4 -5 -6 -6 -6 -5 -5 -5 -5 -5 -4 -4 -5 -6 -6 -7 -8 -8 -8 -8 -9 -9 -9 -9 -8 -8 -8 -9 -12 -16 -19 -20 -19 -18 -16 -15 -14 -13 -13 -12 -12 -11 -8 -10 -17 -17 -16 -19
-2 -2 -1 -1 -3 -4 -5 -5 -5 -5 -5 -7 -6 -7 -7 -7 -6 -5 -5 -5 -6 -6 -6 -7 -8 -7 -8 -8 -8 -7 -8 -9 -14 -18 -20 -20 -21 -22 -21 -21 -20 -20 -20 -17 -14 -12 -12 -11 -10 -9 -14 -19 -18 -19
-1 -1 -2 -3 -4 -6 -5 -6 -5 -5 -6 -6 -8 -8 -8 -8 -6 -7 -6 -7 -7 -7 -6 -5 -5 -6 -7 -7 -7 -8 -14 -19 -19 -17 -16 -16 -18 -19 -20 -20 -19 -19 -19 -19 -18 -17 -11 -9 -9 -9 -10 -18 -19 -18
-2 -4 -3 -5 -5 -6 -6 -6 -6 -7 -6 -7 -7 -8 -9 -8 -6 -7 -7 -8 -8 -7 -7 -6 -6 -6 -6 -8 -12 -19 -18 -16 -14 -13 -13 -14 -16 -18 -18 -17 -16 -16 -16 -16 -15 -15 -15 -15 -13 -10 -9 -12 -18 -18
-5 -7 -5 -5 -5 -6 -6 -5 -6 -6 -6 -7 -8 -10 -9 -7 -6 -6 -7 -9 -10 -10 -9 -9 -9 -11 -15 -18 -16 -14 -12 -11 -10 -11 -13 -15 -16 -17 -17 -16 -15 -14 -14 -13 -13 -13 -13 -13 -13 -14 -13 -12 -13 -14
-6 -7 -7 -6 -6 -6 -6 -6 -6 -5 -5 -6 -9 -9 -7 -5 -5 -7 -9 -10 -11 -11 -11 -10 -13 -18 -16 -13 -13 -11 -10 -10 -12 -14 -16 -16 -15 -14 -14 -14 -14 -14 -13 -13 -12 -13 -13 -13 -13 -13 -13 -13 -13 -13
-6 -6 -7 -7 -6 -6 -6 -5 -4 -4 -6 -8 -8 -6 -5 -5 -6 -9 -10 -11 -13 -13 -15 -17 -14 -13 -14 -14 -12 -10 -10 -13 -14 -15 -14 -14 -14 -14 -14 -14 -14 -13 -14 -14 -13 -13 -13 -13 -13 -12 -12 -12 -12 -12
-7 -6 -6 -6 -7 -8 -8 -6 -7 -7 -8 -7 -7 -8 -9 -9 -11 -11 -11 -12 -14 -17 -17 -15 -14 -14 -14 -10 -9 -10 -12 -14 -14 -14 -14 -15 -16 -16 -16 -15 -15 -15 -15 -15 -15 -15 -15 -14 -14 -14 -13 -13 -12 -11
-6 -6 -7 -9 -8 -9 -11 -10 -9 -8 -8 -9 -9 -10 -11 -11 -12 -11 -13 -14 -15 -16 -16 -15 -14 -10 -9 -9 -12 -14 -13 -14 -16 -17 -17 -17 -16 -16 -14 -14 -14 -14 -14 -14 -14 -14 -14 -14 -14 -14 -14 -14 -13 -13
-7 -7 -9 -10 -11 -12 -11 -9 -8 -8 -9 -9 -10 -10 -10 -11 -12 -12 -12 -13 -12 -12 -10 -9 -9 -11 -15 -13 -13 -14 -15 -15 -15 -16 -16 -14 -14 -14 -14 -14 -14 -14 -14 -14 -14 -14 -14 -14 -14 -14 -14 -14 -14 -14
-9 -9 -8 -9 -11 -10 -9 -8 -9 -9 -9 -9 -9 -9 -9 -9 -9 -9 -9 -9 -9 -10 -13 -15 -13 -12 -12 -12 -12 -12 -12 -14 -15 -15 -14 -14 -14 -14 -14 -14 -14 -14 -14 -14 -15 -15 -15 -15 -14 -14 -14 -14 -14 -14
-8 -9 -9 -9 -10 -10 -10 -12 -13 -13 -13 -13 -13 -12 -12 -12 -12 -13 -14 -15 -16 -14 -12 -12 -11 -11 -10 -11 -11 -12 -14 -14 -14 -14 -14 -14 -14 -14 -14 -14 -15 -15 -15 -15 -15 -15 -15 -15 -15 -15 -15 -15 -15 -15
Wind_Speed
29 24 15 14 13 18 21 19 15 12 10 6 32 36 32 41 38 20 11 9 5 8 12 6 6 6 7 8 4 8 5 1 3 3 3 3 2 4 3 4 6 5 5 3 2 2 7 7 1 3 2 5 6 5
21 19 13 12 14 16 18 19 11 5 20 15 26 33 31 31 32 21 16 9 7 10 12 17 16 13 10 8 12 5 2 3 4 4 0 3 2 1 3 3 1 2 5 4 6 5 3 1 3 7 9 9 4 1
17 14 12 12 15 18 14 20 8 20 12 20 31 29 29 25 27 21 18 16 12 19 13 8 12 11 8 9 11 5 4 5 4 5 5 2 2 2 3 3 0 2 2 3 2 3 3 11 9 6 4 3 2 4
14 11 11 12 14 14 5 18 17 8 17 31 32 30 25 22 24 21 19 17 13 12 6 7 6 9 8 5 4 3 9 11 11 6 4 2 2 3 3 2 2 4 2 3 1 4 9 7 5 2 1 2 5 8
13 12 11 13 12 10 5 3 15 10 28 28 27 25 23 21 21 16 19 16 14 3 6 8 12 10 8 7 9 11 13 15 7 4 3 1 1 1 1 2 2 4 4 4 4 9 3 5 2 2 4 7 10 12
15 13 11 12 10 7 6 9 15 8 28 28 26 23 20 20 18 21 6 6 8 15 9 3 5 7 10 9 10 12 12 8 5 4 3 3 2 1 1 2 3 4 4 5 4 7 2 3 4 4 7 10 9 11
16 14 11 10 8 4 10 12 17 21 30 28 27 25 21 19 22 3 4 13 18 6 6 5 4 3 7 8 9 9 7 6 4 3 2 2 2 1 1 3 4 10 6 5 5 4 3 4 4 8 11 10 9 10
20 16 14 12 13 10 6 19 21 27 30 27 25 24 23 20 12 6 13 20 11 3 5 4 3 3 4 4 4 3 3 3 4 2 2 2 2 1 3 8 8 11 8 5 6 4 3 5 5 8 8 10 10 10
23 19 18 15 18 18 7 30 23 28 31 30 23 21 22 14 4 8 15 7 4 1 7 4 5 4 8 4 4 3 2 3 2 1 1 2 1 4 6 9 17 14 8 9 6 5 5 5 7 7 10 9 9 11
24 23 22 19 22 21 14 38 26 35 34 31 29 8 6 9 10 14 3 1 2 1 3 4 7 3 9 4 3 4 1 2 1 2 4 2 3 14 9 7 13 14 10 8 6 6 6 7 6 7 9 10 10 12
26 26 23 20 26 29 36 42 39 40 36 26 8 5 16 18 10 4 3 1 0 3 3 5 6 7 8 3 3 4 2 1 2 3 3 2 3 4 9 13 14 12 10 8 7 7 8 7 6 8 9 10 12 13
29 27 17 20 27 41 54 44 48 48 27 13 10 27 21 4 2 3 0 2 1 4 5 7 8 7 6 5 5 5 3 1 2 7 2 3 4 6 12 18 13 11 10 8 8 7 8 10 9 10 11 12 14 14
30 25 16 27 44 47 49 47 49 35 28 29 7 7 4 2 2 6 6 3 2 9 10 13 4 6 5 3 4 3 3 3 9 2 3 4 3 9 14 16 14 11 9 8 8 8 9 10 11 13 16 16 15 17
32 28 20 37 40 49 50 53 45 38 19 5 6 6 5 3 5 4 4 4 6 15 28 21 8 5 4 3 3 5 3 4 3 3 6 3 12 15 15 13 11 8 9 9 9 9 9 10 13 16 18 19 19 18
33 27 27 43 46 48 46 50 40 26 15 4 6 6 5 4 2 5 13 13 12 31 28 14 8 5 2 4 2 3 4 4 5 5 3 4 11 16 15 13 9 7 7 9 9 10 10 13 16 18 19 19 19 18
34 27 30 52 55 51 53 50 27 17 7 3 4 5 5 4 2 5 12 17 23 31 17 6 4 4 1 4 3 6 7 6 4 3 4 10 12 12 10 10 8 7 9 11 12 12 13 15 17 19 20 20 19 18
35 30 32 61 56 55 53 42 16 5 4 3 1 3 7 6 5 8 17 16 34 21 3 4 4 5 4 3 2 4 5 3 6 9 12 10 8 5 6 8 9 11 12 14 14 15 16 16 18 20 22 18 17 17
37 37 51 67 62 51 38 13 7 5 3 3 3 7 4 7 18 17 13 29 15 6 8 4 9 3 5 6 3 3 8 6 11 13 11 9 7 3 4 9 12 13 14 15 16 17 18 18 19 20 19 17 15 15
37 41 66 68 58 33 8 7 4 5 3 6 11 10 8 14 15 11 25 19 8 7 12 4 4 3 3 5 5 11 13 13 13 11 8 7 5 8 11 11 12 13 13 15 16 17 18 18 20 19 17 16 15 13
31 57 69 62 47 11 6 6 6 6 5 8 9 8 10 9 14 21 27 11 10 5 3 2 3 2 3 8 9 10 13 13 11 9 8 8 11 12 13 15 16 17 18 19 20 19 19 19 17 17 16 15 15 12
49 70 66 50 20 9 6 6 6 6 10 8 16 6 8 13 12 11 13 7 2 1 1 3 3 6 9 13 15 14 12 8 7 8 8 9 9 11 10 11 13 14 15 16 18 16 16 18 17 16 16 14 13 12
50 60 44 27 8 6 6 4 10 12 6 11 8 7 8 4 5 6 9 2 3 3 5 5 10 14 17 15 9 6 5 5 7 7 7 6 5 5 6 8 10 10 10 12 14 17 17 16 16 16 16 14 14 13
53 47 25 11 6 4 8 9 4 5 5 5 6 5 3 3 4 11 3 3 5 7 10 10 13 15 14 10 9 6 6 5 5 4 2 3 6 8 9 10 12 13 14 11 14 16 18 16 17 19 18 17 17 15
47 12 5 5 5 4 9 3 5 7 8 3 3 5 2 4 7 2 1 4 6 6 13 14 14 15 14 13 10 7 7 7 4 1 3 6 8 9 10 11 12 13 14 16 15 15 16 17 17 18 19 19 19 19
8 2 6 5 6 6 4 4 3 3 4 3 5 3 3 4 2 1 3 4 10 11 10 12 15 16 13 10 12 11 7 4 2 5 8 10 11 11 10 11 11 12 15 15 15 16 15 16 17 17 18 21 22 21
6 2 2 4 4 5 5 5 5 5 4 4 4 6 3 2 3 5 3 9 9 13 16 15 15 15 16 14 10 7 3 3 7 10 10 10 11 13 14 15 16 17 16 18 20 20 19 18 18 18 18 18 21 23
5 2 3 5 9 11 6 8 7 4 5 4 5 5 3 4 6 3 9 9 10 13 15 18 18 17 15 10 5 2 5 9 9 10 10 11 13 14 15 18 20 20 22 22 23 25 27 26 24 23 22 20 19 20
5 5 6 7 7 5 6 4 3 3 4 9 9 4 8 7 4 7 7 14 15 19 22 22 19 13 8 4 4 6 8 9 10 11 12 13 15 16 18 20 21 23 25 26 25 23 23 24 24 24 24 25 25 22
4 8 8 5 6 8 5 3 3 4 9 13 4 4 4 4 8 11 17 17 20 20 18 16 11 7 5 5 7 8 8 9 11 13 16 17 17 17 16 19 22 23 25 27 26 26 26 25 25 25 26 26 25 23
4 5 6 6 5 4 3 4 8 15 13 8 8 9 8 11 12 17 17 17 18 16 13 10 7 6 7 7 6 7 9 13 14 14 16 18 20 21 22 23 24 24 25 26 27 26 24 24 24 23 24 25 24 25
5 6 7 7 4 4 15 21 21 18 12 11 16 18 13 10 11 13 14 14 12 11 9 8 7 5 3 3 6 9 11 13 15 17 19 20 22 23 24 24 23 22 22 21 22 23 24 24 23 24 23 23 22 21
6 5 4 5 4 9 10 6 6 7 6 7 7 7 8 6 4 9 10 9 9 9 9 9 6 3 1 5 9 12 15 16 17 19 21 23 22 21 21 21 20 22 24 24 24 24 25 25 25 24 24 23 22 21
11 17 15 9 5 3 4 6 5 4 7 4 5 4 4 4 4 5 10 12 14 13 10 6 3 2 6 10 12 14 15 17 19 20 19 19 19 20 20 20 21 21 21 21 20 19 19 18 18 17 16 16 16 16
Wind_Direction
321 319 297 284 284 293 310 319 312 307 198 211 192 179 169 183 190 186 167 164 129 99 57 96 121 115 121 128 135 158 103 335 53 86 134 187 168 228 126 172 172 161 153 196 136 177 254 192 151 173 158 123 136 104
320 315 305 292 297 305 320 333 285 212 201 205 189 169 172 180 188 188 171 157 139 106 110 93 93 97 113 120 131 134 118 126 145 95 76 111 183 58 147 207 89 170 179 183 176 216 220 151 131 121 172 167 168 186
308 302 297 303 306 322 343 15 126 157 173 196 169 168 176 177 186 190 175 159 142 107 86 107 66 89 99 130 146 130 156 148 133 111 142 145 128 125 158 238 232 326 173 148 114 3 120 124 115 122 137 150 250 285
295 287 292 294 308 322 323 350 162 149 181 161 165 166 167 172 178 185 173 162 150 119 99 47 84 94 81 97 142 159 162 143 128 104 83 107 126 192 189 186 174 205 105 152 33 59 102 99 95 133 237 292 283 286
274 272 279 288 306 313 337 128 178 137 161 152 157 156 159 161 162 160 170 157 159 106 126 121 88 80 88 96 114 124 137 139 118 85 63 125 85 97 25 78 255 193 180 162 218 185 139 159 230 267 294 302 304 306
259 263 268 280 303 287 16 175 167 155 169 153 149 154 143 157 150 155 126 189 186 136 108 99 84 81 94 108 119 117 124 107 87 93 113 98 83 71 105 216 253 197 172 159 171 169 199 228 239 263 300 296 298 303
250 251 246 259 265 248 110 172 166 162 152 144 148 148 154 156 163 117 161 163 164 157 107 115 110 151 114 98 85 81 88 86 83 98 84 126 116 83 155 227 203 173 157 151 170 182 201 212 258 300 305 309 294 294
243 236 231 238 233 216 89 177 176 165 152 147 149 148 148 154 142 68 132 146 151 135 97 109 89 130 152 93 82 67 78 73 54 89 110 124 137 104 250 234 184 172 168 183 179 182 240 266 277 303 311 319 323 316
237 224 225 228 221 212 171 183 172 172 155 150 156 160 150 147 91 112 129 137 143 154 117 108 137 167 152 105 100 84 81 71 54 82 175 138 187 229 229 200 192 187 188 181 193 255 265 255 273 285 305 314 307 305
226 217 222 226 226 229 229 180 180 172 153 148 142 134 128 142 132 134 140 200 204 96 85 90 121 126 154 129 117 119 89 146 129 233 141 229 255 256 250 227 205 193 196 199 222 253 252 281 280 291 302 308 300 297
215 215 219 228 238 207 186 185 174 158 158 145 140 107 139 144 147 187 195 114 107 43 82 115 128 132 169 123 143 166 166 141 94 247 157 263 270 241 201 195 186 200 214 232 248 264 277 279 268 289 299 299 297 299
205 213 212 229 217 188 187 183 169 160 157 150 147 124 130 168 132 108 293 342 123 187 147 120 141 124 130 130 107 172 131 121 218 154 220 257 251 237 180 183 189 206 217 237 257 260 268 291 289 290 297 301 301 297
200 203 179 168 174 180 179 174 170 155 150 138 119 110 124 149 72 176 187 260 177 179 158 148 136 123 120 109 100 117 106 197 143 201 230 225 241 183 174 183 190 206 226 241 247 261 273 286 299 308 309 301 293 293
198 191 173 170 178 177 171 171 157 160 149 141 136 128 179 184 244 187 188 150 148 152 142 135 111 114 118 85 128 100 218 148 210 239 234 240 214 185 182 190 203 222 239 242 253 258 271 286 297 299 300 307 302 288
197 190 192 175 183 178 179 160 165 168 166 135 154 175 185 192 145 138 125 123 132 147 136 112 90 102 65 124 155 135 160 221 215 232 232 209 176 184 192 202 215 215 253 264 260 266 280 291 298 301 301 298 293 293
193 180 193 178 182 177 171 163 168 163 156 130 117 100 140 115 132 142 131 130 143 143 130 99 103 73 125 140 116 202 154 218 242 218 181 152 164 178 198 219 218 258 276 274 271 275 284 293 302 302 299 297 293 290
186 186 176 180 176 174 174 163 141 138 168 119 82 150 160 106 136 150 149 158 157 148 127 124 103 182 107 72 222 192 204 216 198 164 154 158 166 188 216 234 261 278 281 279 276 278 284 293 302 301 305 310 290 286
188 181 175 171 166 162 153 155 144 158 108 120 123 132 151 131 138 142 150 160 156 140 145 158 129 130 171 174 229 224 201 167 151 154 152 153 149 162 275 282 281 282 280 278 280 282 283 290 293 301 301 302 295 293
183 177 169 175 176 152 132 163 166 114 102 97 115 122 124 117 135 143 153 149 131 138 127 113 96 173 212 206 194 165 171 162 164 169 176 190 228 283 295 289 283 279 281 280 282 284 287 287 287 294 295 292 289 290
174 177 176 177 165 141 117 123 141 108 136 142 137 120 102 114 135 148 155 140 134 127 102 123 208 244 192 164 157 166 169 174 181 189 213 237 270 286 290 289 285 280 276 277 281 284 285 284 283 288 284 282 281 284
169 166 163 156 143 107 110 138 114 120 127 115 126 99 90 113 126 138 154 154 153 180 185 209 209 168 147 145 139 140 147 172 210 241 260 279 287 293 296 295 295 295 293 291 289 287 280 283 282 272 271 271 271 272
154 156 150 142 120 97 94 113 127 121 98 131 112 98 106 94 115 137 140 174 228 220 187 187 182 173 166 160 164 176 203 237 246 256 271 282 303 310 316 315 318 318 311 309 298 291 287 281 271 266 263 259 259 259
152 151 148 144 108 96 126 140 108 111 123 143 110 93 64 98 136 144 150 210 235 220 209 200 191 190 192 205 211 241 255 237 222 202 222 290 313 319 321 321 320 320 322 331 315 305 299 289 275 269 264 258 253 250
151 140 123 113 101 107 140 125 119 111 113 133 105 116 116 130 153 87 183 234 213 209 203 198 195 199 209 224 241 227 184 169 172 243 312 316 312 308 307 312 315 317 319 322 319 315 307 302 294 279 265 257 251 251
123 116 116 90 120 117 117 129 107 85 108 141 118 119 145 127 97 158 226 237 200 192 184 188 204 214 219 199 171 166 168 178 261 297 301 304 301 303 311 311 312 312 314 312 311 313 314 310 303 294 278 265 259 258
81 46 87 130 143 125 163 130 149 135 119 83 72 119 123 123 150 226 214 184 180 188 193 191 177 167 161 160 159 162 187 299 308 302 298 293 300 303 305 306 309 308 306 306 307 308 309 309 307 306 301 288 274 266
117 113 90 93 120 125 100 77 95 85 88 131 158 148 135 170 218 232 161 160 159 162 162 161 161 162 160 161 169 244 308 308 303 298 298 299 300 299 298 301 302 302 303 304 306 308 307 304 301 299 296 292 287 277
99 140 133 147 95 83 114 96 102 113 129 145 138 162 178 179 179 156 156 153 151 152 153 153 157 164 175 214 282 307 306 302 299 300 300 300 300 298 300 299 300 303 304 305 307 307 306 306 305 301 295 289 282 276
76 113 110 76 77 56 50 75 108 116 138 159 129 151 162 104 135 143 149 153 158 160 164 167 174 198 242 283 298 300 301 301 300 302 302 303 305 305 302 300 299 298 298 299 301 302 301 299 296 295 293 293 293 288
80 75 89 48 58 66 46 88 115 126 132 131 119 112 100 114 127 140 142 149 160 169 177 191 215 256 278 284 293 298 302 306 307 307 309 310 309 309 309 308 306 305 304 303 303 303 301 299 297 292 289 287 286 285
86 87 77 61 76 70 112 114 108 105 99 89 104 114 111 120 129 140 150 157 167 181 205 230 231 219 223 267 295 304 314 315 317 316 314 313 313 314 313 314 314 313 311 311 311 311 310 308 305 302 299 296 293 290
54 68 115 102 107 121 111 82 75 78 65 74 63 90 105 105 109 166 184 189 189 186 175 162 154 165 293 317 319 318 318 318 319 318 319 319 319 319 319 322 320 319 321 321 321 318 315 313 311 309 304 299 296 294
83 82 92 102 105 100 92 104 77 85 51 61 52 67 73 111 132 153 165 165 158 151 148 148 155 302 314 315 315 317 321 323 321 320 323 323 323 326 327 327 326 327 324 324 323 324 327 329 329 326 324 323 321 318
Height
1375 1371 1371 1371 1371 1366 1363 1361 1360 1360 1360 1364 1368 1375 1385 1393 1401 1407 1410 1413 1416 1424 1434 1434 1435 1438 1441 1443 1451 1455 1460 1462 1464 1470 1473 1477 1478 1473 1475 1476 1479 1482 1490 1492 1493 1488 1493 1469 1471 1476 1477 1475 1475 1475
1374 1371 1369 1369 1368 1368 1363 1361 1357 1357 1362 1368 1373 1380 1386 1393 1402 1407 1411 1414 1417 1422 1437 1438 1439 1441 1443 1445 1448 1453 1456 1457 1460 1468 1472 1473 1474 1476 1477 1479 1473 1477 1475 1480 1481 1479 1468 1469 1469 1471 1471 1470 1472 1474
1372 1371 1370 1368 1365 1361 1356 1352 1353 1360 1366 1371 1377 1385 1391 1396 1403 1407 1411 1415 1419 1428 1439 1441 1443 1445 1446 1447 1449 1452 1456 1457 1458 1460 1465 1470 1470 1475 1477 1478 1472 1470 1469 1472 1473 1471 1471 1471 1471 1471 1472 1473 1474 1473
1371 1371 1370 1370 1368 1366 1365 1361 1363 1366 1369 1374 1382 1388 1393 1399 1404 1409 1412 1416 1420 1426 1437 1449 1447 1448 1449 1449 1450 1451 1452 1456 1459 1462 1464 1470 1470 1472 1475 1474 1474 1471 1470 1472 1474 1473 1473 1473 1473 1473 1474 1474 1473 1472
1369 1370 1370 1370 1369 1368 1365 1367 1366 1370 1374 1380 1385 1390 1395 1401 1406 1411 1416 1418 1421 1425 1437 1448 1450 1452 1452 1452 1452 1453 1455 1457 1460 1463 1467 1471 1471 1473 1472 1473 1473 1467 1468 1472 1473 1467 1470 1471 1472 1472 1472 1472 1471 1470
1367 1368 1367 1368 1369 1365 1363 1365 1369 1374 1378 1383 1388 1393 1398 1405 1410 1414 1419 1421 1422 1423 1428 1447 1455 1455 1454 1454 1455 1456 1457 1459 1461 1464 1469 1470 1472 1474 1476 1475 1464 1464 1464 1465 1466 1469 1470 1471 1471 1471 1471 1469 1468 1467
1362 1365 1365 1367 1368 1366 1367 1369 1374 1377 1381 1388 1393 1398 1403 1408 1412 1414 1416 1417 1422 1425 1427 1447 1455 1456 1456 1455 1457 1459 1460 1461 1464 1466 1469 1470 1471 1472 1474 1474 1461 1462 1464 1464 1466 1467 1469 1469 1470 1469 1467 1465 1463 1462
1358 1361 1362 1365 1368 1368 1369 1372 1375 1380 1386 1390 1395 1402 1405 1411 1415 1415 1416 1421 1424 1425 1428 1441 1454 1457 1457 1457 1459 1461 1462 1464 1466 1468 1470 1470 1472 1473 1472 1459 1459 1460 1463 1464 1464 1465 1466 1467 1467 1466 1465 1464 1462 1460
1353 1355 1358 1361 1365 1366 1371 1375 1377 1382 1387 1392 1400 1405 1410 1414 1416 1419 1421 1425 1425 1429 1429 1436 1446 1454 1456 1458 1460 1463 1463 1468 1469 1468 1469 1472 1471 1469 1455 1455 1457 1458 1459 1461 1463 1464 1464 1463 1463 1463 1462 1461 1460 1458
1346 1350 1353 1356 1360 1364 1368 1373 1377 1382 1388 1396 1403 1408 1412 1415 1419 1421 1426 1425 1426 1426 1428 1435 1441 1448 1452 1455 1460 1463 1464 1467 1471 1470 1469 1469 1463 1451 1451 1453 1455 1457 1458 1459 1460 1462 1461 1460 1460 1459 1458 1458 1456 1455
1340 1343 1346 1349 1353 1358 1363 1368 1376 1383 1390 1394 1397 1403 1410 1416 1421 1424 1424 1424 1426 1429 1428 1434 1439 1442 1450 1453 1457 1460 1463 1465 1476 1471 1471 1472 1461 1446 1445 1450 1453 1455 1456 1457 1457 1457 1458 1457 1456 1456 1454 1454 1452 1452
1334 1337 1339 1342 1341 1346 1355 1364 1372 1378 1388 1393 1396 1404 1414 1419 1420 1423 1428 1426 1425 1427 1429 1432 1438 1441 1446 1449 1453 1459 1464 1465 1473 1466 1466 1466 1447 1442 1444 1447 1450 1453 1454 1455 1454 1454 1454 1455 1454 1452 1451 1450 1450 1448
1328 1333 1337 1339 1341 1345 1353 1363 1373 1382 1386 1391 1397 1404 1411 1419 1422 1419 1425 1426 1425 1422 1424 1428 1436 1440 1445 1448 1452 1455 1463 1467 1463 1463 1458 1450 1441 1441 1444 1446 1448 1450 1452 1452 1452 1452 1452 1452 1451 1450 1448 1446 1445 1444
1325 1331 1336 1341 1343 1348 1356 1362 1372 1382 1382 1385 1389 1408 1408 1413 1410 1403 1402 1402 1407 1410 1417 1425 1431 1437 1442 1447 1451 1463 1458 1459 1460 1465 1454 1438 1436 1440 1443 1446 1447 1448 1449 1450 1450 1449 1449 1449 1448 1447 1445 1443 1440 1440
1323 1329 1334 1341 1343 1351 1356 1365 1375 1379 1379 1382 1385 1389 1401 1397 1398 1398 1400 1403 1407 1411 1414 1423 1430 1435 1443 1448 1450 1452 1456 1455 1454 1450 1439 1432 1434 1438 1441 1444 1445 1445 1447 1448 1447 1447 1446 1445 1444 1443 1441 1439 1436 1435
1322 1330 1332 1337 1343 1350 1358 1366 1374 1376 1378 1381 1384 1390 1393 1396 1397 1398 1400 1404 1406 1410 1415 1421 1431 1441 1444 1444 1451 1457 1457 1455 1441 1434 1431 1433 1436 1439 1441 1443 1443 1443 1444 1445 1444 1443 1442 1441 1439 1437 1436 1434 1433 1431
1318 1320 1323 1333 1344 1350 1358 1368 1373 1377 1379 1380 1382 1384 1386 1387 1390 1394 1397 1401 1406 1408 1414 1420 1432 1438 1441 1450 1448 1443 1441 1431 1427 1428 1431 1434 1436 1438 1440 1441 1441 1440 1440 1441 1440 1439 1438 1436 1434 1433 1431 1430 1427 1426
1308 1315 1323 1330 1337 1350 1360 1366 1370 1375 1379 1381 1383 1385 1387 1388 1390 1394 1397 1402 1405 1407 1411 1416 1419 1432 1435 1438 1435 1424 1423 1425 1427 1429 1432 1434 1436 1437 1439 1439 1437 1436 1436 1436 1435 1434 1433 1432 1429 1428 1426 1424 1423 1421
1303 1313 1319 1323 1335 1348 1358 1367 1370 1373 1378 1379 1383 1386 1388 1388 1393 1395 1397 1403 1405 1408 1411 1414 1420 1426 1422 1417 1416 1418 1421 1424 1427 1430 1431 1433 1434 1435 1435 1434 1433 1431 1431 1430 1429 1428 1427 1426 1424 1422 1421 1420 1418 1418
1306 1312 1317 1329 1339 1346 1355 1363 1366 1367 1374 1380 1385 1388 1387 1391 1395 1397 1400 1403 1406 1408 1410 1415 1414 1413 1413 1414 1415 1417 1421 1424 1426 1428 1430 1431 1431 1431 1430 1429 1427 1426 1425 1424 1423 1422 1421 1419 1419 1418 1416 1415 1413 1413
1307 1310 1320 1327 1335 1343 1351 1357 1362 1368 1373 1379 1384 1385 1390 1395 1398 1401 1404 1406 1407 1407 1408 1410 1412 1414 1414 1415 1417 1418 1420 1423 1424 1425 1426 1427 1427 1426 1425 1424 1422 1421 1420 1419 1417 1416 1414 1413 1412 1412 1411 1410 1409 1408
1300 1308 1316 1326 1333 1343 1351 1355 1357 1364 1371 1376 1381 1385 1392 1397 1399 1402 1404 1406 1406 1406 1407 1409 1411 1413 1414 1415 1417 1418 1420 1421 1421 1422 1423 1423 1423 1423 1422 1421 1419 1418 1416 1415 1412 1410 1408 1409 1407 1406 1405 1405 1404 1404
1300 1311 1317 1324 1332 1342 1354 1355 1357 1363 1371 1378 1381 1389 1395 1396 1398 1401 1402 1403 1402 1403 1404 1407 1409 1412 1413 1414 1415 1416 1417 1418 1419 1420 1421 1422 1421 1420 1419 1418 1416 1414 1412 1411 1408 1406 1404 1403 1402 1400 1401 1400 1400 1400
1302 1308 1314 1320 1328 1342 1348 1352 1354 1361 1371 1377 1383 1392 1395 1396 1399 1399 1401 1399 1397 1398 1400 1403 1407 1409 1411 1412 1413 1414 1416 1417 1418 1419 1420 1420 1419 1418 1417 1415 1413 1411 1409 1407 1405 1402 1400 1398 1397 1396 1395 1394 1394 1394
1299 1312 1313 1321 1327 1336 1344 1350 1353 1357 1367 1374 1380 1390 1393 1393 1397 1401 1399 1392 1392 1394 1397 1400 1403 1405 1408 1410 1411 1413 1415 1416 1417 1417 1417 1416 1415 1414 1413 1411 1410 1408 1406 1404 1402 1399 1397 1395 1392 1391 1389 1388 1388 1387
1301 1309 1311 1315 1323 1328 1337 1343 1348 1354 1359 1370 1382 1388 1391 1394 1396 1392 1388 1384 1387 1390 1393 1397 1400 1403 1407 1410 1412 1413 1414 1415 1415 1414 1413 1412 1411 1410 1409 1407 1406 1404 1402 1399 1397 1394 1393 1390 1388 1386 1384 1383 1382 1381
1303 1310 1311 1313 1317 1322 1331 1337 1343 1346 1356 1369 1379 1384 1387 1390 1387 1382 1381 1383 1385 1388 1391 1395 1400 1404 1407 1409 1411 1412 1412 1412 1412 1411 1410 1409 1408 1407 1405 1404 1401 1399 1396 1394 1392 1389 1385 1383 1380 1378 1377 1376 1376 1375
1301 1307 1310 1314 1315 1318 1326 1337 1343 1350 1357 1362 1368 1374 1375 1372 1378 1379 1380 1383 1386 1389 1393 1397 1401 1404 1406 1407 1408 1409 1409 1409 1409 1408 1407 1406 1404 1402 1400 1398 1395 1393 1390 1387 1384 1382 1379 1376 1374 1372 1369 1367 1367 1367
1303 1307 1308 1314 1318 1325 1333 1337 1343 1348 1352 1358 1362 1368 1371 1371 1374 1376 1380 1383 1386 1391 1395 1398 1401 1403 1404 1405 1405 1406 1406 1406 1406 1405 1403 1401 1399 1398 1395 1393 1390 1387 1384 1380 1378 1374 1370 1369 1366 1364 1362 1359 1358 1357
1307 1307 1311 1320 1325 1336 1341 1341 1344 1348 1353 1356 1359 1363 1368 1373 1376 1378 1381 1384 1388 1392 1395 1398 1399 1401 1401 1402 1403 1404 1404 1403 1401 1400 1398 1396 1393 1391 1388 1385 1383 1380 1376 1373 1369 1367 1364 1360 1358 1357 1354 1352 1350 1348
1305 1309 1319 1329 1338 1343 1344 1345 1348 1352 1355 1358 1359 1362 1367 1374 1379 1381 1384 1387 1390 1392 1394 1396 1398 1399 1400 1400 1401 1401 1400 1399 1397 1394 1392 1390 1387 1384 1381 1378 1375 1372 1368 1365 1362 1360 1357 1353 1351 1348 1346 1344 1342 1340
1310 1314 1320 1332 1344 1347 1346 1348 1352 1357 1360 1361 1365 1368 1371 1375 1379 1383 1385 1387 1389 1390 1392 1394 1396 1397 1398 1398 1397 1396 1395 1393 1391 1388 1386 1383 1381 1378 1375 1372 1369 1366 1363 1360 1357 1354 1352 1347 1344 1341 1338 1336 1335 1333
1319 1321 1326 1333 1342 1346 1349 1351 1356 1363 1366 1369 1372 1373 1374 1377 1380 1383 1385 1386 1388 1390 1392 1394 1395 1395 1395 1394 1393 1392 1390 1388 1385 1383 1380 1378 1375 1372 1370 1366 1364 1362 1359 1356 1353 1350 1348 1344 1341 1338 1335 1332 1330 1328